^^

..:: Storico WU ::..




Lo storico viene creato da WUnderground con i dati che la stazione Meteomincio invia al loro server. L' aggiornamento viene fatto ogni 5 minuti circa, tuttavia possono esserci intervalli pił ampi a causa di errori, interruzioni di servizio o problemi nell' invio tramite FTP.


Storico stazione MeteoMincio
Giorno Sommario per Febbario 27, 2022 Unità:  Inglese    Metrico   Entrambi
Giorno Settimana Mese Anno
  Max: Min: Media:
Temperatura: 55.4 °F 30.2 °F 43.2 °F
Dew Point: 30.2 °F 19.4 °F 26.1 °F
Umidità: 86% 26% 56%
Velocità vento: 9.3mph 0mph 2.7mph
Raffica: 11.8mph - -
Direzione- - South
Pressione: 30.4 in 30.3 in -
Precipitazioni: 0 in    
 
 
Tabulato Dati per Febbario 27, 2022
Ora Temperatura Dew Point Pressione Direzione Velocità vento Raffica Umidità Intensità pioggia (oraria) Info solare Situazione
00:00 35.6 °F 30.2 °F 30.3 in Calm     80% 0 in 0.00 W/m2 unknown
00:19 35.6 °F 30.2 °F 30.3 in Calm     81% 0 in 0.00 W/m2 unknown
00:20 35.6 °F 30.2 °F 30.3 in Calm     81% 0 in 0.00 W/m2 unknown
00:29 35.6 °F 30.2 °F 30.3 in Calm     81% 0 in 0.00 W/m2 unknown
00:34 35.6 °F 30.2 °F 30.3 in Calm     80% 0 in 0.00 W/m2 unknown
00:39 35.6 °F 30.2 °F 30.3 in Calm     79% 0 in 0.00 W/m2 unknown
00:43 35.6 °F 30.2 °F 30.3 in Calm     79% 0 in 0.00 W/m2 unknown
00:49 37.4 °F 30.2 °F 30.3 in Calm     79% 0 in 0.00 W/m2 unknown
00:54 37.4 °F 30.2 °F 30.3 in Calm     79% 0 in 0.00 W/m2 unknown
00:59 37.4 °F 30.2 °F 30.3 in Calm     79% 0 in 0.00 W/m2 unknown
01:00 37.4 °F 30.2 °F 30.3 in Calm     79% 0 in 0.00 W/m2 unknown
01:09 37.4 °F 30.2 °F 30.3 in Calm     78% 0 in 0.00 W/m2 unknown
01:10 35.6 °F 30.2 °F 30.3 in Calm     78% 0 in 0.00 W/m2 unknown
01:19 35.6 °F 30.2 °F 30.3 in WNW 1.9 mph 3.7 mph 79% 0 in 0.00 W/m2 unknown
01:23 35.6 °F 30.2 °F 30.3 in WNW 1.9 mph 3.7 mph 79% 0 in 0.00 W/m2 unknown
01:25 35.6 °F 30.2 °F 30.3 in WNW 1.9 mph 3.7 mph 79% 0 in 0.00 W/m2 unknown
01:30 35.6 °F 30.2 °F 30.3 in WNW 1.9 mph 3.7 mph 80% 0 in 0.00 W/m2 unknown
01:39 35.6 °F 30.2 °F 30.3 in WNW 1.9 mph 3.7 mph 80% 0 in 0.00 W/m2 unknown
01:40 35.6 °F 30.2 °F 30.3 in WNW 1.9 mph 3.7 mph 80% 0 in 0.00 W/m2 unknown
01:49 35.6 °F 30.2 °F 30.3 in West 1.2 mph 3.7 mph 80% 0 in 0.00 W/m2 unknown
01:54 35.6 °F 30.2 °F 30.3 in West 1.2 mph 3.7 mph 81% 0 in 0.00 W/m2 unknown
01:59 35.6 °F 30.2 °F 30.3 in West 2.5 mph 3.7 mph 82% 0 in 0.00 W/m2 unknown
02:00 35.6 °F 30.2 °F 30.3 in West 1.9 mph 3.1 mph 82% 0 in 0.00 W/m2 unknown
02:34 35.6 °F 30.2 °F 30.3 in NW 1.9 mph 3.7 mph 83% 0 in 0.00 W/m2 unknown
02:39 35.6 °F 30.2 °F 30.3 in WNW 1.2 mph 3.1 mph 83% 0 in 0.00 W/m2 unknown
02:44 35.6 °F 30.2 °F 30.3 in Calm   1.9 mph 83% 0 in 0.00 W/m2 unknown
02:49 35.6 °F 30.2 °F 30.3 in NW 1.9 mph 3.7 mph 82% 0 in 0.00 W/m2 unknown
02:53 35.6 °F 30.2 °F 30.3 in NW 1.9 mph 3.7 mph 82% 0 in 0.00 W/m2 unknown
02:59 35.6 °F 30.2 °F 30.3 in WNW 1.9 mph 3.7 mph 82% 0 in 0.00 W/m2 unknown
03:04 35.6 °F 30.2 °F 30.3 in WNW 1.2 mph 3.1 mph 82% 0 in 0.00 W/m2 unknown
03:09 33.8 °F 30.2 °F 30.3 in North 1.9 mph 3.7 mph 83% 0 in 0.00 W/m2 unknown
03:14 33.8 °F 30.2 °F 30.3 in NNW 2.5 mph 3.7 mph 83% 0 in 0.00 W/m2 unknown
03:19 35.6 °F 30.2 °F 30.3 in NNW 3.1 mph 3.7 mph 83% 0 in 0.00 W/m2 unknown
03:24 35.6 °F 30.2 °F 30.3 in North 2.5 mph 3.7 mph 83% 0 in 0.00 W/m2 unknown
03:29 35.6 °F 30.2 °F 30.3 in NNW 1.9 mph 3.7 mph 82% 0 in 0.00 W/m2 unknown
03:34 35.6 °F 30.2 °F 30.3 in NNW 1.2 mph 3.1 mph 81% 0 in 0.00 W/m2 unknown
03:39 35.6 °F 30.2 °F 30.3 in NNW 1.9 mph 3.1 mph 81% 0 in 0.00 W/m2 unknown
03:44 35.6 °F 30.2 °F 30.3 in NW 1.9 mph 3.7 mph 82% 0 in 0.00 W/m2 unknown
03:49 33.8 °F 30.2 °F 30.3 in NNW 2.5 mph 3.7 mph 83% 0 in 0.00 W/m2 unknown
03:54 33.8 °F 30.2 °F 30.3 in North 1.9 mph 3.1 mph 83% 0 in 0.00 W/m2 unknown
03:59 33.8 °F 30.2 °F 30.3 in NNE 1.2 mph 3.7 mph 82% 0 in 0.00 W/m2 unknown
04:00 33.8 °F 28.4 °F 30.3 in North 1.2 mph 3.1 mph 82% 0 in 0.00 W/m2 unknown
04:23 33.8 °F 28.4 °F 30.3 in NNW 0.6 mph 2.5 mph 85% 0 in 0.00 W/m2 unknown
04:28 32 °F 28.4 °F 30.3 in NW 0.6 mph 1.9 mph 85% 0 in 0.00 W/m2 unknown
04:33 32 °F 28.4 °F 30.3 in WNW 1.2 mph 2.5 mph 85% 0 in 0.00 W/m2 unknown
04:39 32 °F 28.4 °F 30.3 in West 1.9 mph 3.7 mph 85% 0 in 0.00 W/m2 unknown
04:40 32 °F 26.6 °F 30.3 in West 2.5 mph 3.7 mph 85% 0 in 0.00 W/m2 unknown
04:49 30.2 °F 26.6 °F 30.3 in West 3.1 mph 3.7 mph 86% 0 in 0.00 W/m2 unknown
04:54 30.2 °F 26.6 °F 30.3 in WNW 3.1 mph 3.7 mph 86% 0 in 0.00 W/m2 unknown
04:59 32 °F 26.6 °F 30.3 in West 3.1 mph 3.7 mph 86% 0 in 0.00 W/m2 unknown
05:09 32 °F 26.6 °F 30.3 in WNW 3.1 mph 3.7 mph 85% 0 in 0.00 W/m2 unknown
05:14 32 °F 28.4 °F 30.3 in WNW 3.1 mph 3.7 mph 85% 0 in 0.00 W/m2 unknown
05:19 32 °F 28.4 °F 30.3 in WNW 3.1 mph 3.7 mph 85% 0 in 0.00 W/m2 unknown
05:24 32 °F 28.4 °F 30.3 in WNW 2.5 mph 3.7 mph 84% 0 in 0.00 W/m2 unknown
05:29 32 °F 28.4 °F 30.3 in WNW 2.5 mph 3.7 mph 84% 0 in 0.00 W/m2 unknown
05:34 32 °F 28.4 °F 30.3 in NW 2.5 mph 3.7 mph 84% 0 in 0.00 W/m2 unknown
05:39 32 °F 28.4 °F 30.3 in NW 2.5 mph 3.7 mph 84% 0 in 0.00 W/m2 unknown
05:44 32 °F 28.4 °F 30.3 in NW 2.5 mph 3.7 mph 84% 0 in 0.00 W/m2 unknown
05:49 32 °F 28.4 °F 30.3 in NW 1.9 mph 3.7 mph 84% 0 in 0.00 W/m2 unknown
05:54 32 °F 26.6 °F 30.3 in NW 1.9 mph 2.5 mph 84% 0 in 0.00 W/m2 unknown
05:59 32 °F 26.6 °F 30.3 in NW 3.1 mph 3.7 mph 84% 0 in 0.00 W/m2 unknown
06:00 32 °F 26.6 °F 30.3 in NW 1.9 mph 3.7 mph 84% 0 in 0.00 W/m2 unknown
06:19 32 °F 26.6 °F 30.3 in WNW 3.1 mph 3.7 mph 84% 0 in 0.00 W/m2 unknown
06:24 32 °F 26.6 °F 30.3 in WNW 2.5 mph 3.7 mph 82% 0 in 0.00 W/m2 unknown
06:29 32 °F 26.6 °F 30.3 in NW 2.5 mph 3.7 mph 81% 0 in 0.00 W/m2 unknown
06:34 32 °F 26.6 °F 30.3 in NW 2.5 mph 3.7 mph 81% 0 in 0.00 W/m2 unknown
06:39 32 °F 26.6 °F 30.3 in NW 2.5 mph 3.7 mph 82% 0 in 0.00 W/m2 unknown
06:44 32 °F 26.6 °F 30.3 in NW 1.9 mph 3.7 mph 82% 0 in 0.00 W/m2 unknown
06:49 32 °F 26.6 °F 30.3 in NW 2.5 mph 3.7 mph 82% 0 in 0.00 W/m2 unknown
06:54 32 °F 26.6 °F 30.3 in NW 1.9 mph 3.1 mph 81% 0 in 0.00 W/m2 unknown
06:59 32 °F 26.6 °F 30.3 in WNW 2.5 mph 3.7 mph 80% 0 in 0.00 W/m2 unknown
07:04 32 °F 26.6 °F 30.3 in NW 3.1 mph 3.7 mph 79% 0 in 5.00 W/m2 unknown
07:09 32 °F 26.6 °F 30.3 in WNW 3.1 mph 3.7 mph 79% 0 in 7.00 W/m2 unknown
07:14 32 °F 24.8 °F 30.3 in NW 2.5 mph 3.7 mph 79% 0 in 9.00 W/m2 unknown
07:19 32 °F 24.8 °F 30.3 in NW 1.9 mph 3.7 mph 79% 0 in 9.00 W/m2 unknown
07:24 30.2 °F 24.8 °F 30.3 in NW 1.9 mph 3.7 mph 80% 0 in 11.00 W/m2 unknown
07:29 30.2 °F 26.6 °F 30.3 in NW 1.9 mph 3.7 mph 81% 0 in 12.00 W/m2 unknown
07:34 30.2 °F 24.8 °F 30.3 in NW 1.9 mph 3.1 mph 81% 0 in 16.00 W/m2 unknown
07:39 30.2 °F 24.8 °F 30.3 in NW 1.9 mph 2.5 mph 81% 0 in 32.00 W/m2 unknown
07:44 30.2 °F 24.8 °F 30.3 in WNW 1.9 mph 3.1 mph 82% 0 in 49.00 W/m2 unknown
07:49 30.2 °F 24.8 °F 30.3 in WNW 2.5 mph 3.7 mph 82% 0 in 65.00 W/m2 unknown
07:54 32 °F 26.6 °F 30.3 in WNW 2.5 mph 3.7 mph 80% 0 in 79.00 W/m2 unknown
07:59 33.8 °F 26.6 °F 30.3 in NW 1.9 mph 3.7 mph 80% 0 in 93.00 W/m2 unknown
08:00 32 °F 26.6 °F 30.3 in NW 1.2 mph 3.1 mph 77% 0 in 93.00 W/m2 unknown
08:19 35.6 °F 28.4 °F 30.3 in NNW 1.9 mph 2.5 mph 77% 0 in 155.00 W/m2 unknown
08:24 37.4 °F 28.4 °F 30.3 in NNW 1.9 mph 2.5 mph 72% 0 in 179.00 W/m2 unknown
08:29 39.2 °F 28.4 °F 30.3 in NW 1.9 mph 3.7 mph 67% 0 in 193.00 W/m2 unknown
08:34 39.2 °F 28.4 °F 30.3 in WNW 1.9 mph 3.7 mph 66% 0 in 213.00 W/m2 unknown
08:39 39.2 °F 28.4 °F 30.3 in NW 2.5 mph 3.7 mph 64% 0 in 220.00 W/m2 unknown
08:44 39.2 °F 28.4 °F 30.3 in North 2.5 mph 3.7 mph 63% 0 in 151.00 W/m2 unknown
08:49 41 °F 28.4 °F 30.3 in NNW 1.9 mph 3.7 mph 64% 0 in 199.00 W/m2 unknown
08:54 41 °F 28.4 °F 30.3 in NW 1.9 mph 3.7 mph 64% 0 in 185.00 W/m2 unknown
08:59 41 °F 28.4 °F 30.3 in NW 1.2 mph 2.5 mph 63% 0 in 276.00 W/m2 unknown
09:04 42.8 °F 28.4 °F 30.3 in NNW 1.2 mph 2.5 mph 62% 0 in 299.00 W/m2 unknown
09:09 42.8 °F 26.6 °F 30.4 in NNW 1.9 mph 3.7 mph 56% 0 in 309.00 W/m2 unknown
09:14 44.6 °F 26.6 °F 30.4 in NNW 1.2 mph 2.5 mph 54% 0 in 278.00 W/m2 unknown
09:19 44.6 °F 28.4 °F 30.4 in NNW 1.9 mph 3.7 mph 54% 0 in 343.00 W/m2 unknown
09:24 44.6 °F 28.4 °F 30.4 in NW 1.9 mph 3.1 mph 55% 0 in 359.00 W/m2 unknown
09:29 44.6 °F 28.4 °F 30.4 in NW 1.9 mph 2.5 mph 53% 0 in 334.00 W/m2 unknown
09:34 46.4 °F 28.4 °F 30.3 in NW 1.2 mph 2.5 mph 51% 0 in 334.00 W/m2 unknown
09:39 46.4 °F 26.6 °F 30.4 in NNW 1.2 mph 3.1 mph 47% 0 in 392.00 W/m2 unknown
09:44 46.4 °F 26.6 °F 30.4 in North 1.9 mph 3.7 mph 46% 0 in 221.00 W/m2 unknown
09:49 46.4 °F 26.6 °F 30.4 in NNE 1.9 mph 3.7 mph 47% 0 in 304.00 W/m2 unknown
09:54 48.2 °F 26.6 °F 30.4 in NNE 3.1 mph 3.7 mph 44% 0 in 450.00 W/m2 unknown
09:59 48.2 °F 26.6 °F 30.4 in NNW 3.7 mph 3.7 mph 44% 0 in 439.00 W/m2 unknown
10:00 48.2 °F 21.2 °F 30.4 in NNW 1.2 mph 3.1 mph 34% 0 in 346.00 W/m2 unknown
10:19 48.2 °F 21.2 °F 30.4 in East 3.1 mph 5 mph 36% 0 in 473.00 W/m2 unknown
10:24 48.2 °F 21.2 °F 30.4 in ENE 3.1 mph 5 mph 33% 0 in 362.00 W/m2 unknown
10:25 48.2 °F 21.2 °F 30.4 in North 3.1 mph 3.7 mph 32% 0 in 381.00 W/m2 unknown
10:38 48.2 °F 21.2 °F 30.3 in NNE 3.1 mph 3.7 mph 33% 0 in 376.00 W/m2 unknown
10:44 48.2 °F 21.2 °F 30.3 in NNE 2.5 mph 3.7 mph 33% 0 in 376.00 W/m2 unknown
10:49 50 °F 23 °F 30.4 in ENE 1.9 mph 3.7 mph 35% 0 in 554.00 W/m2 unknown
10:54 50 °F 23 °F 30.3 in North 1.9 mph 3.7 mph 35% 0 in 543.00 W/m2 unknown
10:59 50 °F 21.2 °F 30.3 in ENE 4.3 mph 5 mph 32% 0 in 548.00 W/m2 unknown
11:04 50 °F 23 °F 30.3 in North 3.1 mph 5 mph 35% 0 in 522.00 W/m2 unknown
11:09 50 °F 23 °F 30.3 in ENE 4.3 mph 6.8 mph 35% 0 in 566.00 W/m2 unknown
11:14 50 °F 23 °F 30.3 in ESE 4.3 mph 6.8 mph 33% 0 in 566.00 W/m2 unknown
11:19 51.8 °F 26.6 °F 30.3 in East 3.7 mph 6.8 mph 37% 0 in 561.00 W/m2 unknown
11:24 51.8 °F 23 °F 30.3 in NE 3.7 mph 6.2 mph 34% 0 in 566.00 W/m2 unknown
11:29 51.8 °F 21.2 °F 30.3 in East 3.7 mph 5 mph 32% 0 in 573.00 W/m2 unknown
11:34 51.8 °F 21.2 °F 30.3 in NE 3.1 mph 6.8 mph 32% 0 in 578.00 W/m2 unknown
11:39 51.8 °F 19.4 °F 30.3 in ENE 3.7 mph 6.8 mph 29% 0 in 584.00 W/m2 unknown
11:44 51.8 °F 23 °F 30.3 in NE 3.1 mph 6.8 mph 34% 0 in 587.00 W/m2 unknown
11:49 51.8 °F 24.8 °F 30.3 in NE 3.7 mph 6.8 mph 34% 0 in 591.00 W/m2 unknown
11:54 51.8 °F 21.2 °F 30.3 in ENE 5 mph 10.6 mph 30% 0 in 596.00 W/m2 unknown
11:59 51.8 °F 24.8 °F 30.3 in NE 5.6 mph 10.6 mph 34% 0 in 596.00 W/m2 unknown
12:00 51.8 °F 21.2 °F 30.3 in NE 5 mph 8.7 mph 30% 0 in 596.00 W/m2 unknown
12:19 51.8 °F 21.2 °F 30.3 in ESE 4.3 mph 6.8 mph 30% 0 in 603.00 W/m2 unknown
12:24 51.8 °F 21.2 °F 30.3 in ENE 4.3 mph 6.8 mph 30% 0 in 606.00 W/m2 unknown
12:29 53.6 °F 23 °F 30.3 in East 5 mph 8.1 mph 30% 0 in 608.00 W/m2 unknown
12:34 53.6 °F 21.2 °F 30.3 in NNE 5 mph 8.1 mph 29% 0 in 608.00 W/m2 unknown
12:39 53.6 °F 23 °F 30.3 in NW 3.1 mph 8.1 mph 32% 0 in 610.00 W/m2 unknown
12:44 53.6 °F 21.2 °F 30.3 in NE 1.9 mph 5 mph 30% 0 in 610.00 W/m2 unknown
12:49 53.6 °F 23 °F 30.3 in East 3.7 mph 8.1 mph 32% 0 in 610.00 W/m2 unknown
12:53 53.6 °F 23 °F 30.3 in ENE 5.6 mph 8.1 mph 31% 0 in 608.00 W/m2 unknown
12:55 53.6 °F 19.4 °F 30.3 in ENE 5 mph 8.1 mph 26% 0 in 0.00 W/m2 unknown
13:10 53.6 °F 19.4 °F 30.3 in NE 5 mph 9.9 mph 26% 0 in 598.00 W/m2 unknown
13:19 53.6 °F 21.2 °F 30.3 in East 9.3 mph 11.8 mph 28% 0 in 594.00 W/m2 unknown
13:24 53.6 °F 21.2 °F 30.3 in ESE 8.7 mph 11.8 mph 29% 0 in 591.00 W/m2 unknown
13:29 53.6 °F 21.2 °F 30.3 in NE 8.1 mph 11.8 mph 29% 0 in 587.00 W/m2 unknown
13:34 53.6 °F 24.8 °F 30.3 in North 5 mph 11.8 mph 32% 0 in 584.00 W/m2 unknown
13:39 53.6 °F 24.8 °F 30.3 in NNE 8.1 mph 11.8 mph 31% 0 in 582.00 W/m2 unknown
13:44 53.6 °F 19.4 °F 30.3 in ENE 5 mph 11.8 mph 26% 0 in 578.00 W/m2 unknown
13:49 53.6 °F 21.2 °F 30.3 in East 7.5 mph 11.8 mph 28% 0 in 571.00 W/m2 unknown
13:54 53.6 °F 21.2 °F 30.3 in ENE 6.8 mph 11.8 mph 28% 0 in 571.00 W/m2 unknown
13:59 53.6 °F 21.2 °F 30.3 in ENE 5 mph 11.8 mph 27% 0 in 557.00 W/m2 unknown
14:04 53.6 °F 21.2 °F 30.3 in ENE 3.1 mph 8.1 mph 29% 0 in 548.00 W/m2 unknown
14:09 55.4 °F 23 °F 30.3 in NNE 6.2 mph 8.7 mph 29% 0 in 541.00 W/m2 unknown
14:14 55.4 °F 24.8 °F 30.3 in NNE 6.8 mph 9.3 mph 31% 0 in 534.00 W/m2 unknown
14:19 53.6 °F 21.2 °F 30.3 in NNW 5 mph 8.7 mph 28% 0 in 531.00 W/m2 unknown
14:24 55.4 °F 21.2 °F 30.3 in NNE 4.3 mph 6.8 mph 27% 0 in 526.00 W/m2 unknown
14:29 55.4 °F 21.2 °F 30.3 in ENE 8.7 mph 10.6 mph 27% 0 in 517.00 W/m2 unknown
14:34 53.6 °F 21.2 °F 30.3 in SE 5 mph 9.9 mph 27% 0 in 508.00 W/m2 unknown
14:39 53.6 °F 19.4 °F 30.3 in SSW 3.7 mph 5 mph 26% 0 in 501.00 W/m2 unknown
14:44 53.6 °F 21.2 °F 30.3 in WNW 4.3 mph 5 mph 28% 0 in 492.00 W/m2 unknown
14:49 55.4 °F 23 °F 30.3 in NNE 5.6 mph 8.1 mph 29% 0 in 482.00 W/m2 unknown
14:54 55.4 °F 21.2 °F 30.3 in ENE 5.6 mph 8.1 mph 27% 0 in 469.00 W/m2 unknown
14:59 53.6 °F 21.2 °F 30.3 in NE 6.2 mph 8.1 mph 28% 0 in 461.00 W/m2 unknown
15:04 55.4 °F 24.8 °F 30.3 in NNE 6.8 mph 9.3 mph 31% 0 in 446.00 W/m2 unknown
15:09 55.4 °F 24.8 °F 30.3 in NNE 6.8 mph 8.7 mph 30% 0 in 443.00 W/m2 unknown
15:14 55.4 °F 23 °F 30.3 in ENE 5 mph 6.8 mph 28% 0 in 432.00 W/m2 unknown
15:19 55.4 °F 23 °F 30.3 in SE 4.3 mph 6.8 mph 29% 0 in 420.00 W/m2 unknown
15:23 55.4 °F 21.2 °F 30.3 in NE 1.9 mph 6.8 mph 28% 0 in 408.00 W/m2 unknown
15:29 55.4 °F 23 °F 30.3 in WSW 3.7 mph 5 mph 28% 0 in 397.00 W/m2 unknown
15:34 55.4 °F 21.2 °F 30.3 in SSW 4.3 mph 6.2 mph 27% 0 in 385.00 W/m2 unknown
15:39 55.4 °F 21.2 °F 30.3 in SW 3.1 mph 6.2 mph 27% 0 in 373.00 W/m2 unknown
15:44 55.4 °F 23 °F 30.3 in ESE 6.8 mph 9.9 mph 29% 0 in 360.00 W/m2 unknown
15:49 55.4 °F 21.2 °F 30.3 in East 8.1 mph 10.6 mph 26% 0 in 350.00 W/m2 unknown
15:54 53.6 °F 19.4 °F 30.3 in East 3.1 mph 9.9 mph 26% 0 in 336.00 W/m2 unknown
15:59 55.4 °F 21.2 °F 30.3 in NE 1.9 mph 5 mph 27% 0 in 323.00 W/m2 unknown
16:04 55.4 °F 21.2 °F 30.3 in NE 2.5 mph 3.7 mph 27% 0 in 311.00 W/m2 unknown
16:09 55.4 °F 21.2 °F 30.3 in ESE 4.3 mph 6.8 mph 27% 0 in 297.00 W/m2 unknown
16:14 55.4 °F 21.2 °F 30.3 in East 5 mph 6.8 mph 27% 0 in 283.00 W/m2 unknown
16:19 55.4 °F 21.2 °F 30.3 in NNE 3.1 mph 6.8 mph 27% 0 in 269.00 W/m2 unknown
16:24 55.4 °F 21.2 °F 30.3 in NNW 2.5 mph 3.7 mph 27% 0 in 255.00 W/m2 unknown
16:29 55.4 °F 21.2 °F 30.3 in NE 5 mph 6.2 mph 27% 0 in 239.00 W/m2 unknown
16:34 53.6 °F 21.2 °F 30.3 in NE 2.5 mph 6.2 mph 27% 0 in 221.00 W/m2 unknown
16:39 55.4 °F 21.2 °F 30.3 in NNW 3.7 mph 5 mph 27% 0 in 206.00 W/m2 unknown
16:44 55.4 °F 21.2 °F 30.3 in NE 5.6 mph 6.8 mph 27% 0 in 193.00 W/m2 unknown
16:49 53.6 °F 21.2 °F 30.3 in NW 3.1 mph 6.8 mph 27% 0 in 178.00 W/m2 unknown
16:54 53.6 °F 21.2 °F 30.3 in SW 2.5 mph 3.7 mph 27% 0 in 162.00 W/m2 unknown
16:59 53.6 °F 21.2 °F 30.3 in NE 3.7 mph 5 mph 28% 0 in 149.00 W/m2 unknown
17:04 53.6 °F 23 °F 30.3 in NE 5 mph 6.2 mph 30% 0 in 132.00 W/m2 unknown
17:09 53.6 °F 21.2 °F 30.3 in ENE 5 mph 6.8 mph 28% 0 in 114.00 W/m2 unknown
17:14 53.6 °F 21.2 °F 30.3 in ENE 3.7 mph 6.8 mph 29% 0 in 100.00 W/m2 unknown
17:19 53.6 °F 23 °F 30.3 in ENE 4.3 mph 6.2 mph 30% 0 in 86.00 W/m2 unknown
17:24 53.6 °F 23 °F 30.3 in ENE 6.2 mph 8.1 mph 30% 0 in 69.00 W/m2 unknown
17:29 53.6 °F 23 °F 30.3 in East 5.6 mph 8.1 mph 32% 0 in 58.00 W/m2 unknown
17:34 51.8 °F 24.8 °F 30.3 in East 5 mph 8.1 mph 34% 0 in 40.00 W/m2 unknown
17:39 51.8 °F 24.8 °F 30.3 in East 5 mph 8.1 mph 35% 0 in 26.00 W/m2 unknown
17:44 51.8 °F 24.8 °F 30.3 in East 6.8 mph 8.1 mph 35% 0 in 21.00 W/m2 unknown
17:49 51.8 °F 24.8 °F 30.3 in ESE 6.2 mph 8.1 mph 36% 0 in 16.00 W/m2 unknown
17:54 50 °F 24.8 °F 30.3 in ESE 6.2 mph 8.1 mph 36% 0 in 11.00 W/m2 unknown
17:59 50 °F 24.8 °F 30.3 in ESE 6.2 mph 8.1 mph 36% 0 in 7.00 W/m2 unknown
18:04 50 °F 24.8 °F 30.3 in ESE 5 mph 6.8 mph 37% 0 in 5.00 W/m2 unknown
18:09 50 °F 24.8 °F 30.3 in ESE 3.1 mph 5 mph 37% 0 in 0.00 W/m2 unknown
18:14 48.2 °F 24.8 °F 30.3 in ESE 3.1 mph 5 mph 38% 0 in 0.00 W/m2 unknown
18:19 48.2 °F 24.8 °F 30.3 in East 3.1 mph 5 mph 40% 0 in 0.00 W/m2 unknown
18:24 48.2 °F 26.6 °F 30.3 in East 1.2 mph 3.1 mph 42% 0 in 0.00 W/m2 unknown
18:29 48.2 °F 26.6 °F 30.3 in ESE 1.9 mph 2.5 mph 42% 0 in 0.00 W/m2 unknown
18:34 48.2 °F 26.6 °F 30.3 in ESE 1.2 mph 2.5 mph 43% 0 in 0.00 W/m2 unknown
18:39 46.4 °F 26.6 °F 30.3 in ESE 1.9 mph 3.7 mph 44% 0 in 0.00 W/m2 unknown
18:44 46.4 °F 26.6 °F 30.3 in ESE 1.9 mph 3.7 mph 44% 0 in 0.00 W/m2 unknown
18:49 46.4 °F 28.4 °F 30.3 in ESE 1.2 mph 3.1 mph 49% 0 in 0.00 W/m2 unknown
18:54 46.4 °F 28.4 °F 30.3 in ESE 1.2 mph 2.5 mph 49% 0 in 0.00 W/m2 unknown
18:59 46.4 °F 26.6 °F 30.3 in ESE 1.2 mph 2.5 mph 49% 0 in 0.00 W/m2 unknown
19:04 44.6 °F 28.4 °F 30.3 in SE 1.2 mph 2.5 mph 50% 0 in 0.00 W/m2 unknown
19:09 44.6 °F 26.6 °F 30.3 in SE 1.2 mph 1.9 mph 50% 0 in 0.00 W/m2 unknown
19:14 44.6 °F 28.4 °F 30.3 in Calm   1.2 mph 51% 0 in 0.00 W/m2 unknown
19:19 44.6 °F 28.4 °F 30.4 in Calm     52% 0 in 0.00 W/m2 unknown
19:24 44.6 °F 28.4 °F 30.4 in Calm     51% 0 in 0.00 W/m2 unknown
19:29 44.6 °F 28.4 °F 30.4 in SE 1.2 mph 2.5 mph 51% 0 in 0.00 W/m2 unknown
19:34 44.6 °F 28.4 °F 30.4 in SE 1.2 mph 2.5 mph 51% 0 in 0.00 W/m2 unknown
19:39 44.6 °F 26.6 °F 30.4 in WSW 3.1 mph 3.7 mph 51% 0 in 0.00 W/m2 unknown
19:44 42.8 °F 26.6 °F 30.4 in WNW 3.1 mph 3.7 mph 54% 0 in 0.00 W/m2 unknown
19:49 42.8 °F 26.6 °F 30.4 in WNW 3.7 mph 3.7 mph 53% 0 in 0.00 W/m2 unknown
19:54 42.8 °F 26.6 °F 30.4 in NW 3.7 mph 5 mph 51% 0 in 0.00 W/m2 unknown
19:59 42.8 °F 26.6 °F 30.4 in NW 4.3 mph 6.2 mph 51% 0 in 0.00 W/m2 unknown
20:04 44.6 °F 26.6 °F 30.4 in NW 3.7 mph 6.2 mph 51% 0 in 0.00 W/m2 unknown
20:09 44.6 °F 26.6 °F 30.4 in NW 3.1 mph 5 mph 51% 0 in 0.00 W/m2 unknown
20:14 44.6 °F 26.6 °F 30.4 in NW 2.5 mph 5 mph 51% 0 in 0.00 W/m2 unknown
20:19 42.8 °F 26.6 °F 30.4 in NW 2.5 mph 3.7 mph 51% 0 in 0.00 W/m2 unknown
20:24 44.6 °F 26.6 °F 30.4 in NW 3.1 mph 3.7 mph 52% 0 in 0.00 W/m2 unknown
20:29 42.8 °F 26.6 °F 30.4 in NW 2.5 mph 3.7 mph 52% 0 in 0.00 W/m2 unknown
20:34 42.8 °F 26.6 °F 30.4 in NW 1.9 mph 3.7 mph 51% 0 in 0.00 W/m2 unknown
20:39 44.6 °F 26.6 °F 30.4 in NW 1.9 mph 3.7 mph 51% 0 in 0.00 W/m2 unknown
20:44 42.8 °F 26.6 °F 30.4 in NW 1.9 mph 3.7 mph 52% 0 in 0.00 W/m2 unknown
20:49 42.8 °F 26.6 °F 30.4 in NNW 1.9 mph 3.7 mph 51% 0 in 0.00 W/m2 unknown
20:54 42.8 °F 26.6 °F 30.4 in NNW 1.9 mph 3.7 mph 52% 0 in 0.00 W/m2 unknown
20:59 42.8 °F 28.4 °F 30.4 in NNW 1.2 mph 3.1 mph 55% 0 in 0.00 W/m2 unknown
21:04 42.8 °F 28.4 °F 30.4 in Calm   1.9 mph 56% 0 in 0.00 W/m2 unknown
21:09 42.8 °F 26.6 °F 30.4 in Calm   1.2 mph 55% 0 in 0.00 W/m2 unknown
21:14 42.8 °F 28.4 °F 30.4 in Calm   1.2 mph 59% 0 in 0.00 W/m2 unknown
21:19 41 °F 28.4 °F 30.4 in East 1.9 mph 2.5 mph 61% 0 in 0.00 W/m2 unknown
21:24 41 °F 28.4 °F 30.4 in East 1.9 mph 2.5 mph 63% 0 in 0.00 W/m2 unknown
21:29 41 °F 30.2 °F 30.4 in ENE 1.2 mph 2.5 mph 65% 0 in 0.00 W/m2 unknown
21:34 41 °F 30.2 °F 30.4 in ENE 1.2 mph 2.5 mph 67% 0 in 0.00 W/m2 unknown
21:39 39.2 °F 30.2 °F 30.4 in East 3.1 mph 5 mph 67% 0 in 0.00 W/m2 unknown
21:44 39.2 °F 30.2 °F 30.4 in ESE 3.1 mph 5 mph 67% 0 in 0.00 W/m2 unknown
21:49 39.2 °F 30.2 °F 30.4 in ESE 3.7 mph 5 mph 68% 0 in 0.00 W/m2 unknown
21:54 39.2 °F 30.2 °F 30.4 in East 2.5 mph 5 mph 68% 0 in 0.00 W/m2 unknown
21:59 39.2 °F 30.2 °F 30.4 in ESE 2.5 mph 3.7 mph 70% 0 in 0.00 W/m2 unknown
22:04 39.2 °F 30.2 °F 30.4 in ESE 1.9 mph 3.7 mph 70% 0 in 0.00 W/m2 unknown
22:09 39.2 °F 30.2 °F 30.4 in Calm     69% 0 in 0.00 W/m2 unknown
22:14 39.2 °F 30.2 °F 30.4 in Calm     69% 0 in 0.00 W/m2 unknown
22:19 39.2 °F 30.2 °F 30.4 in Calm     69% 0 in 0.00 W/m2 unknown
22:24 39.2 °F 30.2 °F 30.4 in Calm     69% 0 in 0.00 W/m2 unknown
22:29 39.2 °F 30.2 °F 30.4 in Calm     70% 0 in 0.00 W/m2 unknown
22:34 39.2 °F 30.2 °F 30.4 in Calm     70% 0 in 0.00 W/m2 unknown
22:39 39.2 °F 28.4 °F 30.4 in Calm     68% 0 in 0.00 W/m2 unknown
22:44 37.4 °F 28.4 °F 30.4 in Calm     68% 0 in 0.00 W/m2 unknown
22:49 37.4 °F 28.4 °F 30.4 in Calm     68% 0 in 0.00 W/m2 unknown
22:54 37.4 °F 26.6 °F 30.4 in Calm     67% 0 in 0.00 W/m2 unknown
22:59 37.4 °F 26.6 °F 30.4 in Calm     66% 0 in 0.00 W/m2 unknown
23:04 37.4 °F 28.4 °F 30.4 in Calm     68% 0 in 0.00 W/m2 unknown
23:09 37.4 °F 28.4 °F 30.4 in Calm     67% 0 in 0.00 W/m2 unknown
23:14 37.4 °F 28.4 °F 30.4 in Calm     68% 0 in 0.00 W/m2 unknown
23:19 37.4 °F 28.4 °F 30.4 in Calm     68% 0 in 0.00 W/m2 unknown
23:24 37.4 °F 26.6 °F 30.4 in Calm     68% 0 in 0.00 W/m2 unknown
23:29 37.4 °F 28.4 °F 30.4 in Calm     70% 0 in 0.00 W/m2 unknown
23:34 35.6 °F 28.4 °F 30.4 in Calm     71% 0 in 0.00 W/m2 unknown
23:39 35.6 °F 28.4 °F 30.4 in Calm     72% 0 in 0.00 W/m2 unknown
23:44 35.6 °F 28.4 °F 30.4 in Calm     72% 0 in 0.00 W/m2 unknown
23:49 35.6 °F 28.4 °F 30.4 in Calm     73% 0 in 0.00 W/m2 unknown
23:54 35.6 °F 28.4 °F 30.4 in NNE 1.9 mph 3.7 mph 73% 0 in 0.00 W/m2 unknown
23:59 35.6 °F 28.4 °F 30.4 in NNE 1.9 mph 3.7 mph 73% 0 in 0.00 W/m2 unknown
Stazione Meteorologica MeteoMincio Rivalta s/M (MN)
Con i complimenti di Weather Underground - 4 mb



METEO PILLOLE
Temperatura più bassa in un luogo abitato
Oymyakon (740m) - Russia
il 6 febbraio 1933 il termometro segnò -67.7°.
Share

Non seguire questo link o sarai bannato dal sito!